Voltar ao catálogo

STARLINK-6309

AtivoComunicaçõesVLEO
NORAD 56535·PAYLOAD·🇺🇸 United States

Lançado May 14, 2023 de Cape Canaveral Space Force Station

Loading…

Próximas Passagens (próximas 24 horas)

TLE

AtualizadoSource: CelesTrak SupGP

Época: Sep 14, 2026, 20:52 UTC

1 56535C 23065AJ  26257.86993056  .00024829  00000+0  89950-3 0  2573
2 56535  42.9990 238.2538 0001465 258.8564 292.3657 15.27559014    18

Acompanhe STARLINK-6309 em tempo real com AllMySat

Download on the App Store